Home   Weather   Luxembourg   Past weeks

Flag for Luxembourg Past Weather in Luxembourg, Luxembourg — Yesterday and Last 2 Weeks

Now
63 °F

Passing clouds.


Feels Like: 63 °F
Forecast: 44 / 54 °F
Wind: 15 mph from Southeast

Location: Luxembourg Airport

Current Time: Apr 30, 2017 at 3:08:13 pm

Latest Report: Apr 30, 2017 at 2:20 pm


Visibility: N/A

Pressure: 29.77 "Hg

Humidity: 30%

Dew Point: 30 °F

Location of LuxembourgLocation

Past Weather in Luxembourg — Graph

°F

Luxembourg Temperature Yesterday

Maximum temperature yesterday: 57 °F (at 4:50 pm)
Minimum temperature yesterday: 34 °F (at 4:20 am)
Average temperature yesterday: 47 °F

High & Low Weather Summary for the Past Weeks

 TemperatureHumidityPressure
High63 °F (Apr 30, 1:50 pm)100% (Apr 29, 3:20 am)30.60 "Hg (Apr 29, 3:20 am)
Low30 °F (Apr 28, 5:50 am)26% (Apr 20, 6:50 pm)29.74 "Hg (Apr 25, 5:20 am)
Average44 °F62%30.13 "Hg
* Reported Apr 15 1:20 pm — Apr 30 1:50 pm, Luxembourg, Weather by CustomWeather, © 2017

Note: Actual official high and low records may vary slightly from our data, if they occured in-between our weather recording intervals... More about our weather records

Advertising

Luxembourg Weather History for the Previous 24 Hours

Scroll right to see more
 ConditionsComfort  
Time TempWeatherWind HumidityBarometerVisibility
1:50 pm
Sun, Apr 30
63 °FSunny.14 mph30%29.77 "Hg10 mi
1:20 pm61 °FPassing clouds.16 mph31%29.80 "HgN/A
12:50 pm61 °FPassing clouds.15 mph31%29.80 "HgN/A
12:20 pm61 °FPassing clouds.13 mph34%29.80 "HgN/A
11:50 am59 °FSunny.14 mph34%29.83 "Hg10 mi
11:20 am57 °FPassing clouds.15 mph39%29.83 "HgN/A
10:50 am55 °FPassing clouds.16 mph38%29.86 "HgN/A
10:20 am54 °FSunny.13 mph44%29.86 "Hg10 mi
9:50 am52 °FSunny.15 mph47%29.86 "Hg10 mi
9:20 am50 °FPassing clouds.10 mph54%29.89 "HgN/A
8:50 am48 °FPassing clouds.10 mph54%29.89 "HgN/A
8:20 am46 °FSunny.7 mph57%29.89 "Hg10 mi
7:50 am43 °FPassing clouds.7 mph66%29.89 "HgN/A
7:20 am41 °FPassing clouds.7 mph70%29.89 "HgN/A
6:50 am39 °FSunny.7 mph70%29.89 "Hg10 mi
6:20 am39 °FSunny.7 mph70%29.89 "Hg10 mi
5:50 am37 °FClear.8 mph75%29.89 "Hg10 mi
5:20 am39 °FClear.7 mph70%29.89 "Hg10 mi
4:50 am39 °FClear.7 mph70%29.92 "Hg10 mi
4:20 am41 °FQuite cool.9 mph66%29.92 "HgN/A
3:50 am43 °FQuite cool.9 mph61%29.92 "HgN/A
3:20 am41 °FQuite cool.10 mph66%29.92 "HgN/A
2:50 am43 °FQuite cool.9 mph61%29.92 "HgN/A
2:20 am43 °FQuite cool.8 mph61%29.92 "HgN/A
1:50 am43 °FClear.6 mph61%29.95 "Hg10 mi
1:20 am43 °FClear.6 mph61%29.95 "Hg10 mi
12:50 am46 °FClear.8 mph57%29.95 "Hg10 mi
12:20 am46 °FClear.9 mph57%29.95 "Hg10 mi
11:50 pm
Sat, Apr 29
48 °FClear.12 mph54%29.95 "Hg10 mi
11:20 pm48 °FClear.8 mph54%29.95 "Hg10 mi
10:50 pm50 °FClear.8 mph47%29.95 "Hg10 mi
10:20 pm50 °FClear.6 mph47%29.95 "Hg10 mi
9:20 pm52 °FClear.3 mph47%29.95 "Hg10 mi
8:50 pm52 °FClear.2 mph47%29.95 "Hg10 mi
8:20 pm54 °FSunny.6 mph44%29.95 "Hg10 mi
7:50 pm55 °FPassing clouds.6 mph38%29.95 "HgN/A
7:20 pm55 °FPassing clouds.3 mph36%29.95 "HgN/A
6:50 pm55 °FPassing clouds.5 mph36%29.98 "HgN/A
6:20 pm57 °FSunny.5 mph33%29.98 "Hg10 mi
5:50 pm57 °FSunny.5 mph33%29.98 "Hg10 mi
5:20 pm57 °FPassing clouds.6 mph33%29.98 "HgN/A
4:50 pm57 °FPassing clouds.6 mph36%30.01 "HgN/A
4:20 pm55 °FSunny.3 mph36%30.01 "Hg10 mi
3:50 pm55 °FPassing clouds.6 mph36%30.01 "HgN/A
3:20 pm55 °FPassing clouds.7 mph38%30.01 "HgN/A
Weather by CustomWeather, © 2017

See weather overviewHow to use our weather pages